Tracking 28790 objects as of 19-Apr-2024
HD Live streaming from Space Station
objects crossing your sky now

STARLINK-4259

Track STARLINK-4259 now!
10-day predictions
STARLINK-4259 is classified as:


NORAD ID: 52987
Int'l Code: 2022-076B
Perigee: 545.8 km
Apogee: 548.0 km
Inclination: 53.2 °
Period: 95.4 minutes
Semi major axis: 6917 km
RCS: Unknown
Launch date: July 7, 2022
Source: United States (US)
Launch site: AIR FORCE EASTERN TEST RANGE (AFETR)
Your satellite tracking list
Your tracking list is empty




NASA's NSSDC Master Catalog

Two Line Element Set (TLE):
1 52987U 22076B   24109.86068115 -.00000668  00000-0 -23875-4 0  9990
2 52987  53.2182 320.8753 0001528  93.0227 267.0940 15.08836400 98562
Source of the keplerian elements: AFSPC